�������l�o���
Date,Time,MP-1(��Sv/h),MP-2(��Sv/h),MP-3(��Sv/h),MP-4(��Sv/h),MP-5(��Sv/h),MP-6(��Sv/h),MP-7(��Sv/h),MP-8(��Sv/h),����,����(m/s),���J
2019/02/17,00:00,0.778,1.154,0.799,1.481,1.066,0.443,0.792,0.749,���쐼,1.2,��
2019/02/17,00:10,0.778,1.154,0.799,1.485,1.065,0.443,0.791,0.749,���쐼,1.5,��
2019/02/17,00:20,0.779,1.154,0.800,1.483,1.068,0.446,0.793,0.749,���k��,0.6,��
2019/02/17,00:30,0.780,1.156,0.798,1.482,1.068,0.444,0.791,0.749,�k��,0.6,��
2019/02/17,00:40,0.778,1.153,0.799,1.483,1.065,0.444,0.790,0.749,-,CALM,��
2019/02/17,00:50,0.780,1.154,0.799,1.483,1.067,0.445,0.790,0.749,�k��,0.9,��
2019/02/17,01:00,0.778,1.154,0.800,1.482,1.065,0.446,0.790,0.749,�k��,2.0,��
2019/02/17,01:10,0.780,1.152,0.798,1.480,1.066,0.445,0.792,0.749,�k��,2.8,��
2019/02/17,01:20,0.779,1.156,0.798,1.481,1.068,0.444,0.791,0.749,�k�k��,2.6,��
2019/02/17,01:30,0.778,1.155,0.800,1.483,1.066,0.446,0.792,0.749,�k��,2.9,��
2019/02/17,01:40,0.779,1.155,0.796,1.481,1.066,0.443,0.790,0.749,�k�k��,3.5,��
2019/02/17,01:50,0.779,1.155,0.799,1.481,1.065,0.445,0.791,0.750,�k�k��,4.6,��
2019/02/17,02:00,0.779,1.154,0.798,1.482,1.065,0.445,0.790,0.748,�k�k��,6.7,��
2019/02/17,02:10,0.777,1.155,0.799,1.480,1.064,0.445,0.791,0.748,�k,6.9,��
2019/02/17,02:20,0.779,1.154,0.798,1.482,1.067,0.444,0.790,0.748,�k,7.8,��
2019/02/17,02:30,0.778,1.154,0.798,1.481,1.064,0.442,0.791,0.749,�k,7.6,��
2019/02/17,02:40,0.778,1.156,0.799,1.482,1.065,0.444,0.790,0.748,�k�k��,7.4,��
2019/02/17,02:50,0.779,1.155,0.799,1.482,1.065,0.444,0.790,0.749,�k,7.2,��
2019/02/17,03:00,0.777,1.156,0.799,1.480,1.066,0.442,0.791,0.749,�k,5.5,��
2019/02/17,03:10,0.776,1.154,0.796,1.480,1.064,0.444,0.790,0.750,�k,5.4,��
2019/02/17,03:20,0.777,1.155,0.796,1.482,1.065,0.443,0.791,0.748,�k,4.8,��
2019/02/17,03:30,0.776,1.155,0.797,1.481,1.066,0.446,0.791,0.749,�k�k��,5.1,��
2019/02/17,03:40,0.778,1.154,0.798,1.483,1.065,0.444,0.791,0.749,�k,5.1,��
2019/02/17,03:50,0.777,1.154,0.799,1.479,1.064,0.445,0.790,0.748,�k�k��,4.0,��
2019/02/17,04:00,0.777,1.155,0.797,1.481,1.065,0.444,0.789,0.748,�k,2.6,��
2019/02/17,04:10,0.778,1.152,0.798,1.482,1.065,0.442,0.789,0.749,�k�k��,2.5,��
2019/02/17,04:20,0.778,1.153,0.798,1.480,1.065,0.444,0.791,0.749,�k�k��,3.6,��
2019/02/17,04:30,0.778,1.154,0.798,1.483,1.063,0.442,0.791,0.750,�k�k��,4.5,��
2019/02/17,04:40,0.778,1.151,0.797,1.481,1.065,0.443,0.792,0.746,�k�k��,3.4,��
2019/02/17,04:50,0.775,1.152,0.797,1.481,1.063,0.443,0.791,0.748,�k�k��,3.0,��
2019/02/17,05:00,0.776,1.153,0.798,1.478,1.063,0.442,0.790,0.748,�k,3.0,��
2019/02/17,05:10,0.780,1.152,0.799,1.482,1.063,0.442,0.789,0.748,�k�k��,2.0,��
2019/02/17,05:20,0.777,1.153,0.798,1.481,1.064,0.443,0.789,0.748,�k�k��,2.3,��
2019/02/17,05:30,0.778,1.155,0.797,1.480,1.061,0.442,0.790,0.748,�k�k��,1.5,��
2019/02/17,05:40,0.777,1.154,0.797,1.480,1.062,0.443,0.791,0.747,�k�k��,2.3,��
2019/02/17,05:50,0.776,1.154,0.796,1.479,1.062,0.443,0.790,0.748,�k��,1.5,��
2019/02/17,06:00,0.777,1.152,0.797,1.481,1.063,0.444,0.791,0.749,���k��,1.2,��
2019/02/17,06:10,0.776,1.151,0.798,1.481,1.063,0.443,0.789,0.749,���k��,1.8,��
2019/02/17,06:20,0.775,1.151,0.797,1.482,1.064,0.443,0.791,0.749,���쓌,1.9,��
2019/02/17,06:30,0.777,1.151,0.797,1.479,1.065,0.442,0.789,0.747,�쓌,0.9,��
2019/02/17,06:40,0.776,1.152,0.796,1.478,1.061,0.442,0.789,0.747,�쓌,0.9,��
2019/02/17,06:50,0.777,1.151,0.796,1.481,1.064,0.444,0.788,0.749,��,0.9,��
2019/02/17,07:00,0.776,1.152,0.797,1.483,1.062,0.443,0.790,0.747,�쐼,1.2,��
2019/02/17,07:10,0.777,1.149,0.797,1.481,1.064,0.442,0.789,0.749,�쐼,2.6,��
2019/02/17,07:20,0.777,1.153,0.797,1.481,1.062,0.442,0.789,0.748,-,CALM,��
2019/02/17,07:30,0.777,1.153,0.797,1.479,1.064,0.442,0.792,0.749,-,CALM,��
2019/02/17,07:40,0.778,1.151,0.798,1.481,1.064,0.443,0.791,0.748,�k�k��,1.5,��
2019/02/17,07:50,0.778,1.152,0.799,1.483,1.062,0.443,0.790,0.747,���k��,2.0,��
2019/02/17,08:00,0.778,1.152,0.798,1.482,1.065,0.445,0.792,0.750,��,2.3,��
2019/02/17,08:10,0.779,1.155,0.798,1.482,1.064,0.444,0.791,0.749,�k,1.5,��
2019/02/17,08:20,0.778,1.154,0.800,1.481,1.064,0.444,0.791,0.749,���k��,0.8,��
2019/02/17,08:30,0.777,1.152,0.800,1.481,1.064,0.443,0.791,0.748,�k�k��,1.4,��
2019/02/17,08:40,0.779,1.155,0.800,1.481,1.066,0.443,0.794,0.750,�k��,1.2,��
2019/02/17,08:50,0.780,1.155,0.800,1.483,1.065,0.445,0.790,0.749,�k�k��,1.9,��
2019/02/17,09:00,0.779,1.156,0.799,1.483,1.068,0.443,0.794,0.748,���k��,0.9,��
2019/02/17,09:10,0.780,1.157,0.800,1.483,1.064,0.444,0.792,0.748,���k��,1.9,��
2019/02/17,09:20,0.782,1.158,0.800,1.482,1.065,0.443,0.792,0.748,���k��,1.5,��
2019/02/17,09:30,0.780,1.157,0.802,1.482,1.066,0.444,0.791,0.749,���k��,1.2,��
2019/02/17,09:40,0.781,1.156,0.799,1.481,1.067,0.443,0.792,0.747,��,2.0,��
2019/02/17,09:50,0.780,1.157,0.800,1.483,1.068,0.445,0.791,0.751,��,2.6,��
2019/02/17,10:00,0.779,1.154,0.800,1.480,1.067,0.444,0.790,0.749,��,2.5,��
2019/02/17,10:10,0.779,1.155,0.800,1.484,1.066,0.444,0.791,0.751,�k��,1.9,��
2019/02/17,10:20,0.782,1.153,0.801,1.484,1.066,0.444,0.790,0.750,���k��,2.2,��
2019/02/17,10:30,0.780,1.154,0.800,1.485,1.069,0.445,0.789,0.750,���쓌,3.4,��
2019/02/17,10:40,0.782,1.155,0.802,1.483,1.068,0.444,0.791,0.751,��,2.0,��
2019/02/17,10:50,0.782,1.157,0.801,1.482,1.068,0.445,0.790,0.751,���쓌,3.3,��
2019/02/17,11:00,0.780,1.156,0.800,1.481,1.069,0.444,0.789,0.748,�쓌,1.5,��
2019/02/17,11:10,0.781,1.156,0.800,1.486,1.069,0.444,0.790,0.749,�쐼,3.2,��
2019/02/17,11:20,0.781,1.155,0.801,1.482,1.069,0.444,0.789,0.750,���k��,3.6,��
2019/02/17,11:30,0.783,1.156,0.800,1.485,1.068,0.446,0.791,0.751,�k��,3.9,��
2019/02/17,11:40,0.781,1.157,0.799,1.484,1.068,0.446,0.789,0.750,���k��,7.1,��
2019/02/17,11:50,0.781,1.156,0.800,1.484,1.068,0.446,0.791,0.750,���k��,7.5,��
2019/02/17,12:00,0.783,1.158,0.802,1.486,1.069,0.446,0.791,0.751,��,8.5,��
2019/02/17,12:10,0.785,1.158,0.802,1.486,1.068,0.446,0.792,0.750,��,7.9,��
2019/02/17,12:20,0.783,1.160,0.803,1.486,1.068,0.446,0.791,0.751,���k��,7.9,��
2019/02/17,12:30,0.782,1.158,0.801,1.485,1.070,0.447,0.790,0.749,���k��,6.5,��
2019/02/17,12:40,0.785,1.157,0.800,1.486,1.070,0.446,0.790,0.752,��,10.0,��
2019/02/17,12:50,0.787,1.160,0.802,1.486,1.070,0.444,0.791,0.751,��,8.7,��
2019/02/17,13:00,0.783,1.160,0.801,1.486,1.070,0.446,0.791,0.752,���k��,9.0,��
2019/02/17,13:10,0.784,1.156,0.800,1.484,1.070,0.446,0.791,0.750,��,9.3,��
2019/02/17,13:20,0.783,1.160,0.801,1.485,1.070,0.446,0.791,0.750,��,9.1,��
2019/02/17,13:30,0.783,1.157,0.802,1.487,1.069,0.447,0.791,0.751,��,9.0,��
2019/02/17,13:40,0.784,1.159,0.803,1.487,1.069,0.447,0.792,0.751,��,12.5,��
2019/02/17,13:50,0.783,1.159,0.801,1.488,1.069,0.447,0.791,0.749,��,11.3,��
2019/02/17,14:00,0.782,1.160,0.801,1.486,1.070,0.448,0.790,0.750,��,11.6,��
2019/02/17,14:10,0.782,1.158,0.801,1.486,1.070,0.446,0.791,0.749,���k��,9.7,��
2019/02/17,14:20,0.782,1.158,0.803,1.488,1.068,0.448,0.793,0.751,��,9.5,��
2019/02/17,14:30,0.784,1.159,0.801,1.487,1.071,0.446,0.791,0.748,��,9.6,��
2019/02/17,14:40,0.781,1.158,0.802,1.487,1.073,0.447,0.790,0.748,��,9.0,��
2019/02/17,14:50,0.784,1.160,0.800,1.492,1.070,0.447,0.792,0.748,��,8.3,��
2019/02/17,15:00,0.783,1.158,0.803,1.489,1.072,0.447,0.794,0.749,��,9.1,��
2019/02/17,15:10,0.782,1.159,0.803,1.486,1.071,0.446,0.794,0.747,���k��,8.9,��
2019/02/17,15:20,0.783,1.159,0.805,1.487,1.071,0.447,0.793,0.750,���k��,9.4,��
2019/02/17,15:30,0.781,1.162,0.802,1.486,1.072,0.446,0.794,0.753,��,8.4,��
2019/02/17,15:40,0.784,1.160,0.802,1.487,1.071,0.449,0.794,0.750,��,8.9,��
2019/02/17,15:50,0.784,1.160,0.801,1.486,1.069,0.447,0.795,0.750,��,7.9,��
2019/02/17,16:00,0.784,1.163,0.803,1.488,1.072,0.447,0.794,0.751,��,6.8,��
2019/02/17,16:10,0.782,1.163,0.803,1.490,1.070,0.448,0.794,0.751,��,6.6,��
2019/02/17,16:20,0.783,1.163,0.802,1.487,1.071,0.445,0.794,0.749,��,6.6,��
2019/02/17,16:30,0.783,1.163,0.803,1.488,1.071,0.446,0.793,0.751,��,6.1,��
2019/02/17,16:40,0.784,1.160,0.801,1.488,1.070,0.447,0.795,0.751,��,6.5,��
2019/02/17,16:50,0.782,1.161,0.803,1.488,1.071,0.447,0.793,0.750,��,7.5,��
2019/02/17,17:00,0.782,1.158,0.802,1.488,1.073,0.446,0.795,0.752,��,6.2,��
2019/02/17,17:10,0.783,1.159,0.802,1.488,1.072,0.446,0.793,0.748,���쐼,5.8,��
2019/02/17,17:20,0.781,1.160,0.802,1.488,1.070,0.446,0.794,0.748,��,7.4,��
2019/02/17,17:30,0.783,1.160,0.803,1.487,1.073,0.446,0.793,0.751,��,7.3,��
2019/02/17,17:40,0.781,1.158,0.801,1.490,1.072,0.446,0.793,0.750,���쐼,6.8,��
2019/02/17,17:50,0.780,1.161,0.802,1.490,1.074,0.447,0.792,0.750,��,5.6,��
2019/02/17,18:00,0.782,1.159,0.800,1.487,1.072,0.447,0.794,0.750,��,3.6,��
2019/02/17,18:10,0.782,1.158,0.800,1.486,1.071,0.446,0.793,0.749,��,1.4,��
2019/02/17,18:20,0.782,1.162,0.802,1.485,1.071,0.447,0.793,0.751,���k��,2.0,��
2019/02/17,18:30,0.782,1.161,0.801,1.489,1.071,0.447,0.792,0.750,���k��,3.6,��
2019/02/17,18:40,0.783,1.158,0.802,1.485,1.071,0.446,0.794,0.750,���k��,3.9,��
2019/02/17,18:50,0.783,1.161,0.801,1.485,1.074,0.446,0.793,0.750,��,3.4,��
2019/02/17,19:00,0.780,1.159,0.801,1.487,1.071,0.446,0.793,0.749,���쐼,5.1,��
2019/02/17,19:10,0.782,1.160,0.799,1.487,1.070,0.447,0.793,0.749,��,5.5,��
2019/02/17,19:20,0.781,1.160,0.801,1.488,1.072,0.447,0.794,0.750,��,6.0,��
2019/02/17,19:30,0.781,1.159,0.803,1.486,1.072,0.445,0.793,0.749,��,4.6,��
2019/02/17,19:40,0.781,1.158,0.802,1.486,1.072,0.445,0.793,0.750,���쐼,2.9,��
2019/02/17,19:50,0.781,1.159,0.802,1.487,1.071,0.445,0.792,0.750,���쐼,4.6,��
2019/02/17,20:00,0.781,1.158,0.802,1.486,1.071,0.446,0.793,0.752,���쐼,5.8,��
2019/02/17,20:10,0.781,1.161,0.802,1.486,1.072,0.447,0.791,0.749,�쐼,5.3,��
2019/02/17,20:20,0.780,1.158,0.801,1.486,1.071,0.447,0.793,0.749,���쐼,5.1,��
2019/02/17,20:30,0.781,1.159,0.800,1.487,1.070,0.446,0.792,0.751,���쐼,5.5,��
2019/02/17,20:40,0.781,1.157,0.802,1.486,1.071,0.445,0.794,0.749,���쐼,4.2,��
2019/02/17,20:50,0.781,1.158,0.802,1.488,1.071,0.445,0.791,0.748,���쐼,4.9,��
2019/02/17,21:00,0.781,1.158,0.802,1.486,1.070,0.445,0.793,0.749,���쐼,4.2,��
2019/02/17,21:10,0.779,1.159,0.801,1.484,1.070,0.446,0.792,0.749,��,4.6,��
2019/02/17,21:20,0.782,1.160,0.802,1.487,1.067,0.446,0.790,0.750,���쐼,4.2,��
2019/02/17,21:30,0.780,1.158,0.800,1.487,1.070,0.445,0.792,0.749,��,6.7,��
2019/02/17,21:40,0.780,1.157,0.800,1.485,1.071,0.446,0.792,0.749,��,7.2,��
2019/02/17,21:50,0.782,1.160,0.802,1.487,1.071,0.446,0.792,0.749,��,6.7,��
2019/02/17,22:00,0.781,1.158,0.800,1.487,1.072,0.445,0.791,0.749,��,6.1,��
2019/02/17,22:10,0.781,1.158,0.800,1.487,1.071,0.446,0.792,0.750,��,6.1,��
2019/02/17,22:20,0.781,1.158,0.800,1.485,1.069,0.446,0.790,0.750,��,5.5,��
2019/02/17,22:30,0.781,1.159,0.800,1.486,1.071,0.446,0.792,0.749,��,5.2,��
2019/02/17,22:40,0.780,1.160,0.801,1.489,1.070,0.447,0.791,0.750,��,3.4,��
2019/02/17,22:50,0.780,1.158,0.800,1.488,1.070,0.446,0.790,0.750,��,4.4,��
2019/02/17,23:00,0.782,1.158,0.802,1.487,1.068,0.445,0.792,0.751,��,5.3,��
2019/02/17,23:10,0.782,1.158,0.800,1.487,1.071,0.445,0.790,0.746,��,4.7,��
2019/02/17,23:20,0.781,1.157,0.800,1.484,1.071,0.445,0.791,0.748,��,4.2,��
2019/02/17,23:30,0.778,1.160,0.800,1.485,1.067,0.446,0.790,0.750,��,3.0,��
2019/02/17,23:40,0.780,1.159,0.800,1.487,1.071,0.445,0.789,0.748,���k��,2.0,��
2019/02/17,23:50,0.780,1.159,0.798,1.485,1.067,0.445,0.790,0.750,���쐼,1.2,��
